User: anonymous   Login
Location: La B�doule
(43.2468°N, 5.5934°E)
Time: 16:24:12
(UTC+00:00)
Language:

Iridium 2 - Orbit

View from above orbital plane
View from above orbital plane
View from above satellite
View from above satellite

Ground track
Ground track

The orbit data is extracted from the following two-line orbital elements,

1 25527U 98066A   20225.15016587  .00000601  00000-0  27065-4 0  9995
2 25527  85.5268  71.0165 0009453 155.2588 204.9108 15.18684190192595
Epoch (UTC): 12 August 2020 03:36:14
Eccentricity: 0.0009453
inclination: 85.5268°
perigee height: 503 km
apogee height: 516 km
right ascension of ascending node: 71.0165°
argument of perigee: 155.2588°
revolutions per day: 15.18684190
mean anomaly at epoch: 204.9108°
orbit number at epoch: 19259

The dashed part of the orbit path shows where the satellite is in the earth's shadow,  

DLR